FENGYUN 1C DEB, 30317

Orbit data source: Space-Track

FENGYUN 1C DEB, 30317 is space debris in SSO originally from a launch on Mon, 10 May 1999 UTC launched from the Taiyaun Space Center, China (TSC). Fengyun 1C debris stems from the Chinese weather satellite Fengyun-1C, which was intentionally destroyed by a Chinese anti-satellite missile in 2007. This event dramatically increased the amount of space debris, with thousands of trackable fragments posing hazards to satellites and human spaceflight. The Fengyun 1C debris cloud has become a focal point in discussions about space sustainability and the need for international regulations to prevent the creation of new debris.

Loading next visibility...
Identifier
30317, 1999-025AAE
Orbit
SSO
Country
Flag of CNCN / PRC
Related business
Manufacturer
Unknown
Mission
Spacecraft
Bus & Motor
Unknown
Mass
Unknown
Launch date (UTC)
1999-05-10 (27 years ago)
Launch vehicle
Unknown
Launch site
Taiyaun Space Center, China (TSC)
Object type
Payload
Rocket body
Debris
Shape & HBR
Unknown shape, 0.1 m
Radar Cross Section
Medium (>0.1 m² and <1 m²)

Expand to show TLE details & history
Last TLE update: 14 hours ago

TLE from 14 hours ago
0 FENGYUN 1C DEB
1 30317U 99025AAE 26254.72736147  .00000138  00000-0  10795-3 0  9992
2 30317  98.7966 252.6634 0024261 226.8056 133.1086 14.07066259  8496
Epoch: 2026-09-11T17:27Z
TLE epoch observation values (Epoch: 2026-09-11T17:27:24.031Z)
Latitude
-0.00004°
Longitude
0.06671°
Altitude
884.363 km
Speed
7.404 km/s
True Right ascension
16h 50m 39s
True Declination
0° 00' 00"
Sunlit
Object was in daylight at epoch
Visualization orbit readout
Latitude
Unknown
Longitude
Unknown
Altitude
Unknown
Speed
Unknown
Apparent Right ascension
Unknown
Apparent Declination
Unknown
Sunlit
N/A
Visualization observer readout
Local Sidereal Time
00:06:59
Azimuth
Unknown
Elevation
Unknown
Doppler factor
Unknown
Orbital elements
Apogee altitude
884.185 km
Perigee altitude
849.032 km
Semi-major axis
7,244.745 km
Eccentricity
0.00243
Inclination
98.7966°
RAAN
252.6634°
Arg. of periapsis
226.8056°
True anomaly
133.31114°
Mean anomaly
133.1086°
Eccentric anomaly
133.20991°
Mean motion
3.51972 °/min
Orbital period
102.28 mins
BSTAR
0.00010795
Loading maneuver chart data...
Computing Atmospheric mass density...

Documentation

Showing up to 5 results
|